User: anonymous   Login
Location: Unspecified
(0.0000°N, 0.0000°E)
Time: 07:20:30
(UTC+02:00)
Language:

Cosmos 540 Rocket - Orbit

View from above orbital plane
View from above orbital plane
View from above satellite
View from above satellite

Ground track
Ground track

The orbit data is extracted from the following two-line orbital elements,

1 06324U 72104B   16269.20456972  .00000158  00000-0  54826-4 0  9991
2 06324  74.0759 237.0158 0007796  84.0943 276.1102 14.43327387297348
Epoch (UTC): 25 September 2016 04:54:34
Eccentricity: 0.0007796
inclination: 74.0759°
perigee height: 742 km
apogee height: 753 km
right ascension of ascending node: 237.0158°
argument of perigee: 84.0943°
revolutions per day: 14.43327387
mean anomaly at epoch: 276.1102°
orbit number at epoch: 29734

The dashed part of the orbit path shows where the satellite is in the earth's shadow,  

DLR